{"data":{"norad_id":66849,"epoch":"2026-05-25T01:31:55.166016Z","epoch_age_seconds":72559,"freshness":"FRESH","line1":"1 66849U 25281B   26145.06383294  .00011965  00000+0  44358-3 0  9992","line2":"2 66849  42.9995 272.3557 0000788 284.1918  75.8846 15.27583252 27861","mean_motion":15.27583252,"eccentricity":7.88e-5,"inclination_deg":42.9995,"raan_deg":272.3557,"arg_perigee_deg":284.1918,"mean_anomaly_deg":75.8846,"bstar":0.00044358,"rev_number":2786,"period_min":94.266548033613,"perigee_km":482.49869770199,"apogee_km":483.58001909607,"semimajor_km":6861.176358399,"source":"CELESTRAK","updated_at":"2026-05-25T13:38:21.339982Z"}}